Tracking 17558 objects as of 10-February-2016
HD Live streaming from Space Station
objects crossing your sky now

TERRIERS

Track TERRIERS now!
10-day predictions
TERRIERS is classified as:


NORAD ID: 25735
Int'l Code: 1999-026A
Perigee: 443.0 km
Apogee: 450.7 km
Inclination: 97.1 °
Period: 93.4 minutes
Semi major axis: 6817 km
RCS: 0.4968 m2 (medium)
Launch date: May 18, 1999
Source: United States (US)
Launch site: Pegasus launched from Western Range Air Space (WRAS)
Your satellite tracking list
Your tracking list is empty





NASA's NSSDC Master Catalog

Two Line Element Set (TLE):
1 25735U 99026A   16040.52342257  .00006472  00000-0  15286-3 0  9993
2 25735  97.1316 208.1572 0005676  30.4114  43.1187 15.4217081593126
Source of the keplerian elements: AFSPC

N2YO: 512